This is the latest recevied weather packets stored in our database for station/object K7FLA. If no packets are shown the sender has not sent any weather packets the latest 10 day(s).
| Time | Temp. | Humidity | Pressure | Rain* | Wind** | Luminosity | Snow |
|---|---|---|---|---|---|---|---|
| 1788294368 | 32.22° C | 17% | 1096.7 hPa | 0 mm | - | 762 W/m² | - |
| 1788294065 | 32.22° C | 16% | 1096.7 hPa | 0 mm | - | 765 W/m² | - |
| 1788293760 | 32.22° C | 18% | 1096.8 hPa | 0 mm | - | 768 W/m² | - |
| 1788293459 | 31.67° C | 20% | 1097 hPa | 0 mm | - | 775 W/m² | - |
| 1788293159 | 31.67° C | 20% | 1097 hPa | 0 mm | - | 768 W/m² | - |
| 1788292854 | 31.67° C | 19% | 1096.9 hPa | 0 mm | - | 778 W/m² | - |
| 1788292552 | 31.67° C | 19% | 1097.1 hPa | 0 mm | - | 783 W/m² | - |
| 1788292251 | 31.67° C | 21% | 1096.9 hPa | 0 mm | - | 782 W/m² | - |
| 1788291947 | 31.67° C | 19% | 1097.1 hPa | 0 mm | - | 782 W/m² | - |
| 1788291642 | 31.67° C | 18% | 1097.3 hPa | 0 mm | - | 783 W/m² | - |
| 1788291342 | 31.67° C | 18% | 1097.4 hPa | 0 mm | - | 790 W/m² | - |
| 1788291037 | 31.11° C | 18% | 1097.4 hPa | 0 mm | - | 785 W/m² | - |
| 1788290732 | 31.11° C | 18% | 1097.7 hPa | 0 mm | - | 784 W/m² | - |
| 1788290427 | 31.11° C | 18% | 1097.5 hPa | 0 mm | - | 789 W/m² | - |
| 1788290123 | 31.67° C | 19% | 1097.6 hPa | 0 mm | - | 789 W/m² | - |
| 1788289819 | 31.67° C | 19% | 1097.8 hPa | 0 mm | - | 788 W/m² | - |
| 1788289514 | 31.11° C | 17% | 1097.6 hPa | 0 mm | - | 788 W/m² | - |
| 1788289214 | 31.67° C | 16% | 1097.7 hPa | 0 mm | - | 783 W/m² | - |
| 1788288908 | 31.67° C | 18% | 1097.6 hPa | 0 mm | - | 779 W/m² | - |
| 1788288606 | 31.67° C | 18% | 1097.7 hPa | 0 mm | - | 776 W/m² | - |
| 1788288302 | 31.67° C | 16% | 1097.7 hPa | 0 mm | - | 773 W/m² | - |
| 1788287997 | 31.67° C | 16% | 1097.6 hPa | 0 mm | - | 769 W/m² | - |
| 1788287697 | 31.11° C | 18% | 1097.9 hPa | 0 mm | - | 760 W/m² | - |
| 1788287392 | 31.67° C | 15% | 1097.8 hPa | 0 mm | - | 754 W/m² | - |
| 1788287089 | 31.67° C | 15% | 1097.7 hPa | 0 mm | - | 749 W/m² | - |
* Rain latest hour (hover to see other rain measurements)
** Current wind speed in m/s (hover to see current wind gust speed)